EW3804 Weather Reports


Display with metric or nautical units.
time (UTC)temp
F
wind
direction
speed
MPH
gust
MPH
rain 1hr
in
rain 24hr
in
rain mn
in
humidity
%
barometer
mb
20200403073136 64 110 4.0 12.0 0.00 1.47 0.00 97 1004.7
20200403071613 64 103 5.0 13.0 0.00 1.47 0.00 97 1004.9
20200403070234 64 150 6.0 14.0 0.00 1.47 0.00 97 1005.0
20200403064553 65 100 7.0 15.0 0.00 1.47 0.00 96 1005.0
20200403063114 65 129 7.0 14.0 0.00 1.47 0.00 96 1005.0
20200403060110 65 139 7.0 16.0 0.00 1.47 0.00 97 1005.0
20200403054618 65 132 8.0 16.0 0.00 1.47 0.00 98 1005.1
20200403053058 65 104 9.0 17.0 0.00 1.47 0.00 98 1005.1
20200403051539 65 141 9.0 15.0 0.00 1.47 0.00 98 1005.1
20200403050035 64 117 8.0 17.0 0.00 1.47 0.00 99 1005.1
20200403044601 64 91 8.0 15.0 0.00 1.47 1.47 99 1005.2
20200403043220 64 162 9.0 17.0 0.00 1.47 1.47 99 1005.2
20200403041550 64 124 8.0 16.0 0.00 1.47 1.47 99 1005.2
20200403040144 64 110 7.0 12.0 0.00 1.47 1.47 99 1005.4
20200403034540 64 115 5.0 10.0 0.00 1.47 1.47 99 1005.7
20200403033059 64 144 4.0 10.0 0.00 1.47 1.47 99 1005.6
20200403031534 64 134 8.0 14.0 0.00 1.47 1.47 99 1005.5
20200403030033 64 108 6.0 11.0 0.00 1.47 1.47 98 1005.4
20200403024531 64 112 5.0 11.0 0.01 1.47 1.47 98 1005.4
20200403023116 64 112 5.0 11.0 0.01 1.47 1.47 98 1005.2
20200403021604 63 124 2.0 8.0 0.01 1.47 1.47 98 1005.2
20200403020121 63 131 0.0 6.0 0.07 1.47 1.47 98 1005.0
20200403014535 63 121 2.0 13.0 0.20 1.46 1.46 98 1004.8
20200403013037 64 123 7.0 15.0 0.31 1.46 1.46 98 1004.7
20200403011557 65 148 5.0 12.0 0.38 1.46 1.46 98 1004.5
20200403010048 65 101 5.0 11.0 0.45 1.45 1.45 98 1004.4
20200403004541 65 123 4.0 11.0 0.57 1.37 1.37 98 1004.3
20200403003144 65 71 7.0 11.0 0.60 1.26 1.26 98 1003.8
20200403001627 65 117 6.0 12.0 0.60 1.13 1.13 98 1004.2
20200403000218 65 113 5.0 9.0 0.47 1.01 1.01 98 1004.0
20200402234619 65 76 4.0 10.0 0.48 0.99 0.99 98 1003.8
20200402233151 65 125 6.0 10.0 0.30 0.80 0.80 98 1003.8
20200402231758 65 336 0.0 4.0 0.37 0.65 0.65 98 1004.3
20200402230119 65 22 0.0 4.0 0.26 0.54 0.54 98 1003.7
20200402224628 65 86 2.0 8.0 0.33 0.52 0.52 98 1003.4
20200402223128 65 124 1.0 5.0 0.44 0.50 0.50 98 1003.7
20200402221612 65 111 0.0 11.0 0.27 0.28 0.28 98 1004.3
20200402220122 65 75 6.0 9.0 0.27 0.28 0.28 97 1002.3
20200402214641 65 70 5.0 16.0 0.19 0.19 0.19 97 1003.6
20200402213049 65 137 5.0 11.0 0.08 0.08 0.08 97 1003.8
20200402211609 65 125 4.0 9.0 0.03 0.03 0.03 96 1004.4
20200402210113 65 95 4.0 12.0 0.01 0.01 0.01 95 1004.0
20200402204635 66 99 9.0 19.0 0.01 0.01 0.01 91 1002.8
20200402203105 67 161 9.0 15.0 0.00 0.00 0.00 88 1003.5
20200402201549 68 120 8.0 16.0 0.00 0.00 0.00 86 1004.2
20200402200250 69 119 9.0 19.0 0.00 0.00 0.00 83 1004.4
20200402194538 70 130 6.0 17.0 0.00 0.00 0.00 82 1004.7
20200402193007 70 150 6.0 11.0 0.00 0.00 0.00 80 1004.8
20200402191516 70 53 6.0 15.0 0.00 0.00 0.00 82 1004.9
20200402190014 70 113 5.0 11.0 0.00 0.00 0.00 82 1005.0
20200402184523 70 155 6.0 18.0 0.00 0.00 0.00 82 1005.1
20200402183041 69 120 11.0 19.0 0.00 0.00 0.00 82 1005.2
20200402181556 70 147 6.0 16.0 0.00 0.00 0.00 81 1005.5
20200402180037 70 137 9.0 17.0 0.00 0.00 0.00 81 1005.7
20200402174547 68 157 8.0 17.0 0.00 0.00 0.00 83 1005.9
20200402173123 68 125 6.0 13.0 0.00 0.00 0.00 85 1006.0
20200402171601 67 139 8.0 14.0 0.00 0.00 0.00 85 1006.4
20200402170042 66 147 3.0 10.0 0.00 0.00 0.00 87 1006.8
20200402164600 65 124 3.0 11.0 0.00 0.00 0.00 89 1006.9
20200402163034 64 115 3.0 7.0 0.00 0.00 0.00 89 1007.1
20200402161522 63 127 5.0 9.0 0.00 0.00 0.00 90 1006.8
20200402160115 62 122 4.0 13.0 0.00 0.00 0.00 90 1006.8
20200402154525 61 131 7.0 13.0 0.00 0.00 0.00 90 1006.6
20200402153020 61 122 4.0 12.0 0.00 0.00 0.00 90 1007.0
20200402151515 61 129 4.0 9.0 0.00 0.00 0.00 90 1006.7
20200402150048 61 108 5.0 11.0 0.00 0.00 0.00 91 1006.2
20200402144531 61 30 2.0 16.0 0.00 0.00 0.00 91 1006.4
20200402143013 60 121 13.0 18.0 0.00 0.00 0.00 91 1005.6
20200402141532 60 153 5.0 11.0 0.00 0.00 0.00 91 1006.6
20200402140015 60 113 6.0 14.0 0.00 0.00 0.00 91 1006.6
20200402134517 59 120 5.0 10.0 0.00 0.00 0.00 91 1006.5
20200402133015 59 128 0.0 6.0 0.00 0.00 0.00 92 1006.5
20200402131522 59 120 7.0 10.0 0.00 0.00 0.00 91 1005.7
20200402130019 59 125 6.0 10.0 0.00 0.00 0.00 91 1005.8
20200402124508 59 117 6.0 10.0 0.00 0.00 0.00 91 1006.0
20200402123018 59 180 7.0 12.0 0.00 0.00 0.00 91 1005.7
20200402121520 59 131 4.0 11.0 0.00 0.00 0.00 91 1005.6
20200402120008 59 122 6.0 11.0 0.00 0.00 0.00 90 1005.2
20200402113006 59 117 4.0 9.0 0.00 0.00 0.00 90 1005.5
20200402111510 59 130 6.0 11.0 0.00 0.00 0.00 89 1005.0
20200402110003 59 110 5.0 10.0 0.00 0.00 0.00 89 1005.2
20200402104503 59 110 3.0 11.0 0.00 0.00 0.00 88 1005.2
20200402103013 59 141 4.0 11.0 0.00 0.00 0.00 88 1005.0
20200402101512 59 147 4.0 8.0 0.00 0.00 0.00 88 1005.0
20200402100029 59 110 4.0 9.0 0.00 0.00 0.00 88 1004.9
20200402094508 59 141 4.0 9.0 0.00 0.00 0.00 88 1004.8
20200402093020 59 44 3.0 8.0 0.00 0.00 0.00 88 1005.0
20200402090004 59 96 4.0 12.0 0.00 0.00 0.00 88 1005.0
20200402084503 59 120 4.0 11.0 0.00 0.00 0.00 87 1005.0
20200402081648 60 140 5.0 13.0 0.00 0.00 0.00 85 1005.0
20200402080319 60 142 4.0 11.0 0.00 0.00 0.00 85 1005.4
20200402074811 60 147 3.0 13.0 0.00 0.00 0.00 84 1005.5